Time,TemperatureF,DewpointF,PressureIn,WindDirection,WindDirectionDegrees,WindSpeedMPH,WindSpeedGustMPH,Humidity,HourlyPrecipIn,Conditions,Clouds,dailyrainin,SoftwareType,DateUTC
2013-04-14 00:00:00,53.8,37.5,29.32,SE,144,4.0,5.8,54,0.00,,---,0.00,VWS V14.00,2013-04-14 05:00:00,
2013-04-14 00:05:00,53.6,37.4,29.32,SE,146,5.4,7.4,54,0.00,,---,0.00,VWS V14.00,2013-04-14 05:05:00,
2013-04-14 00:10:00,53.6,37.4,29.32,SE,143,4.0,5.8,54,0.00,,---,0.00,VWS V14.00,2013-04-14 05:10:00,
2013-04-14 00:15:00,53.6,37.4,29.32,SE,139,4.7,6.6,54,0.00,,---,0.00,VWS V14.00,2013-04-14 05:15:00,
2013-04-14 00:20:00,53.6,37.4,29.32,SE,137,0.0,1.0,54,0.00,,---,0.00,VWS V14.00,2013-04-14 05:20:00,
2013-04-14 00:25:00,53.4,37.2,29.32,SE,137,0.0,1.0,54,0.00,,---,0.00,VWS V14.00,2013-04-14 05:25:00,
2013-04-14 00:30:00,53.2,37.5,29.32,SE,141,4.7,6.6,55,0.00,,---,0.00,VWS V14.00,2013-04-14 05:30:00,
2013-04-14 00:35:00,53.2,37.5,29.32,SSE,152,4.0,5.8,55,0.00,,---,0.00,VWS V14.00,2013-04-14 05:35:00,
2013-04-14 00:40:00,53.2,37.0,29.32,SE,144,4.7,6.6,54,0.00,,---,0.00,VWS V14.00,2013-04-14 05:40:00,
2013-04-14 00:45:00,53.4,37.2,29.32,SE,132,4.7,6.6,54,0.00,,---,0.00,VWS V14.00,2013-04-14 05:45:00,
2013-04-14 00:50:00,53.2,37.5,29.32,SE,138,0.0,1.0,55,0.00,,---,0.00,VWS V14.00,2013-04-14 05:50:00,
2013-04-14 00:55:00,53.1,37.3,29.32,SE,128,3.4,5.0,55,0.00,,---,0.00,VWS V14.00,2013-04-14 05:55:00,
2013-04-14 01:00:00,53.1,37.3,29.32,SSE,147,4.7,6.6,55,0.00,,---,0.00,VWS V14.00,2013-04-14 06:00:00,
2013-04-14 01:05:00,53.2,37.0,29.32,SSE,148,5.4,7.4,54,0.00,,---,0.00,VWS V14.00,2013-04-14 06:05:00,
2013-04-14 01:10:00,53.2,37.0,29.32,SE,144,4.7,6.6,54,0.00,,---,0.00,VWS V14.00,2013-04-14 06:10:00,
2013-04-14 01:15:00,53.2,37.0,29.32,SE,145,5.4,7.4,54,0.00,,---,0.00,VWS V14.00,2013-04-14 06:15:00,
2013-04-14 01:20:00,53.1,37.3,29.32,SE,146,6.0,8.2,55,0.00,,---,0.00,VWS V14.00,2013-04-14 06:20:00,
2013-04-14 01:25:00,53.1,37.3,29.32,SE,140,5.4,7.4,55,0.00,,---,0.00,VWS V14.00,2013-04-14 06:25:00,
2013-04-14 01:30:00,53.1,37.3,29.32,SE,143,6.0,8.2,55,0.00,,---,0.00,VWS V14.00,2013-04-14 06:30:00,
2013-04-14 01:35:00,52.9,37.2,29.32,SSE,152,6.0,8.2,55,0.00,,---,0.00,VWS V14.00,2013-04-14 06:35:00,
2013-04-14 01:40:00,52.9,37.2,29.32,SSE,147,5.4,7.4,55,0.00,,---,0.00,VWS V14.00,2013-04-14 06:40:00,
2013-04-14 01:45:00,52.9,37.2,29.32,SSE,149,4.7,6.6,55,0.00,,---,0.00,VWS V14.00,2013-04-14 06:45:00,
2013-04-14 01:50:00,52.9,37.2,29.29,SE,144,4.7,6.6,55,0.00,,---,0.00,VWS V14.00,2013-04-14 06:50:00,
2013-04-14 01:55:00,52.9,37.2,29.29,SE,145,5.4,7.4,55,0.00,,---,0.00,VWS V14.00,2013-04-14 06:55:00,
2013-04-14 02:00:00,52.9,37.2,29.29,SE,146,6.0,8.2,55,0.00,,---,0.00,VWS V14.00,2013-04-14 07:00:00,
2013-04-14 02:05:00,52.7,37.0,29.29,SSE,153,7.4,9.9,55,0.00,,---,0.00,VWS V14.00,2013-04-14 07:05:00,
2013-04-14 02:10:00,52.7,37.0,29.29,SSE,154,8.1,10.7,55,0.00,,---,0.00,VWS V14.00,2013-04-14 07:10:00,
2013-04-14 02:15:00,52.5,36.8,29.29,SSE,148,5.4,7.4,55,0.00,,---,0.00,VWS V14.00,2013-04-14 07:15:00,
2013-04-14 02:20:00,52.7,37.0,29.29,SE,138,6.0,8.2,55,0.00,,---,0.00,VWS V14.00,2013-04-14 07:20:00,
2013-04-14 02:25:00,52.7,37.0,29.29,SSE,151,6.0,8.2,55,0.00,,---,0.00,VWS V14.00,2013-04-14 07:25:00,
2013-04-14 02:30:00,52.7,37.0,29.29,SSE,157,6.0,8.2,55,0.00,,---,0.00,VWS V14.00,2013-04-14 07:30:00,
2013-04-14 02:35:00,52.7,37.0,29.29,SSE,154,5.4,7.4,55,0.00,,---,0.00,VWS V14.00,2013-04-14 07:35:00,
2013-04-14 02:40:00,52.5,36.8,29.29,SSE,155,6.0,8.2,55,0.00,,---,0.00,VWS V14.00,2013-04-14 07:40:00,
2013-04-14 02:45:00,52.5,36.4,29.29,SSE,161,6.0,9.1,54,0.00,,---,0.00,VWS V14.00,2013-04-14 07:45:00,
2013-04-14 02:50:00,52.5,36.8,29.29,SSE,159,6.0,10.7,55,0.00,,---,0.00,VWS V14.00,2013-04-14 07:50:00,
2013-04-14 02:55:00,52.5,36.4,29.29,SSE,155,6.0,10.7,54,0.00,,---,0.00,VWS V14.00,2013-04-14 07:55:00,
2013-04-14 03:00:00,52.5,36.4,29.29,SSE,161,7.4,9.9,54,0.00,,---,0.00,VWS V14.00,2013-04-14 08:00:00,
2013-04-14 03:05:00,52.5,36.4,29.29,SSE,154,6.0,8.2,54,0.00,,---,0.00,VWS V14.00,2013-04-14 08:05:00,
2013-04-14 03:10:00,52.5,36.4,29.29,SSE,157,5.4,7.4,54,0.00,,---,0.00,VWS V14.00,2013-04-14 08:10:00,
2013-04-14 03:15:00,52.5,36.4,29.29,SSE,155,6.0,8.2,54,0.00,,---,0.00,VWS V14.00,2013-04-14 08:15:00,
2013-04-14 03:20:00,52.3,36.7,29.26,SSE,147,6.7,9.1,55,0.00,,---,0.00,VWS V14.00,2013-04-14 08:20:00,
2013-04-14 03:25:00,52.3,36.7,29.26,SSE,158,7.4,9.9,55,0.00,,---,0.00,VWS V14.00,2013-04-14 08:25:00,
2013-04-14 03:30:00,52.3,36.7,29.26,SSE,151,6.0,8.2,55,0.00,,---,0.00,VWS V14.00,2013-04-14 08:30:00,
2013-04-14 03:35:00,52.3,36.7,29.26,SSE,152,6.7,9.1,55,0.00,,---,0.00,VWS V14.00,2013-04-14 08:35:00,
2013-04-14 03:40:00,52.2,36.5,29.26,SSE,155,6.0,8.2,55,0.00,,---,0.00,VWS V14.00,2013-04-14 08:40:00,
2013-04-14 03:45:00,52.2,36.5,29.26,SE,144,5.4,8.2,55,0.00,,---,0.00,VWS V14.00,2013-04-14 08:45:00,
2013-04-14 03:50:00,52.2,36.5,29.26,SE,137,5.4,7.4,55,0.00,,---,0.00,VWS V14.00,2013-04-14 08:50:00,
2013-04-14 03:55:00,52.0,36.3,29.26,SE,141,4.7,6.6,55,0.00,,---,0.00,VWS V14.00,2013-04-14 08:55:00,
2013-04-14 04:00:00,52.0,36.3,29.26,SE,145,4.0,5.8,55,0.00,,---,0.00,VWS V14.00,2013-04-14 09:00:00,
2013-04-14 04:05:00,52.0,36.3,29.26,SE,144,5.4,7.4,55,0.00,,---,0.00,VWS V14.00,2013-04-14 09:05:00,
2013-04-14 04:10:00,52.0,36.3,29.26,SSE,151,6.0,8.2,55,0.00,,---,0.00,VWS V14.00,2013-04-14 09:10:00,
2013-04-14 04:15:00,52.0,36.3,29.26,SSE,159,7.4,9.9,55,0.00,,---,0.00,VWS V14.00,2013-04-14 09:15:00,
2013-04-14 04:20:00,51.8,36.2,29.26,SSE,167,7.4,9.9,55,0.00,,---,0.00,VWS V14.00,2013-04-14 09:20:00,
2013-04-14 04:25:00,51.8,36.6,29.26,SSE,158,6.0,8.2,56,0.00,,---,0.00,VWS V14.00,2013-04-14 09:25:00,
2013-04-14 04:30:00,52.0,36.8,29.26,SSE,152,6.0,10.7,56,0.00,,---,0.00,VWS V14.00,2013-04-14 09:30:00,
2013-04-14 04:35:00,52.0,36.8,29.29,SSE,151,5.4,7.4,56,0.00,,---,0.00,VWS V14.00,2013-04-14 09:35:00,
2013-04-14 04:40:00,52.2,37.0,29.29,SSE,151,6.0,8.2,56,0.00,,---,0.00,VWS V14.00,2013-04-14 09:40:00,
2013-04-14 04:45:00,52.0,36.8,29.29,SSE,151,6.7,9.1,56,0.00,,---,0.00,VWS V14.00,2013-04-14 09:45:00,
2013-04-14 04:50:00,52.2,37.0,29.26,SSE,151,6.0,8.2,56,0.00,,---,0.00,VWS V14.00,2013-04-14 09:50:00,
2013-04-14 04:55:00,52.2,37.0,29.26,SSE,150,5.4,7.4,56,0.00,,---,0.00,VWS V14.00,2013-04-14 09:55:00,
2013-04-14 05:00:00,52.2,37.0,29.26,SSE,152,4.7,6.6,56,0.00,,---,0.00,VWS V14.00,2013-04-14 10:00:00,
2013-04-14 05:05:00,52.2,37.0,29.26,SSE,154,4.7,6.6,56,0.00,,---,0.00,VWS V14.00,2013-04-14 10:05:00,
2013-04-14 05:10:00,52.2,37.0,29.26,SSE,149,5.4,7.4,56,0.00,,---,0.00,VWS V14.00,2013-04-14 10:10:00,
2013-04-14 05:15:00,52.0,36.8,29.26,SSE,153,6.0,8.2,56,0.00,,---,0.00,VWS V14.00,2013-04-14 10:15:00,
2013-04-14 05:20:00,52.0,36.8,29.26,SSE,155,4.7,6.6,56,0.00,,---,0.00,VWS V14.00,2013-04-14 10:20:00,
2013-04-14 05:25:00,52.0,36.8,29.26,SSE,155,4.7,6.6,56,0.00,,---,0.00,VWS V14.00,2013-04-14 10:25:00,
2013-04-14 05:30:00,51.8,36.6,29.26,SE,136,5.4,7.4,56,0.00,,---,0.00,VWS V14.00,2013-04-14 10:30:00,
2013-04-14 05:35:00,51.6,36.9,29.26,SSE,154,6.0,8.2,57,0.00,,---,0.00,VWS V14.00,2013-04-14 10:35:00,
2013-04-14 05:40:00,51.8,36.6,29.26,SSE,155,4.7,6.6,56,0.00,,---,0.00,VWS V14.00,2013-04-14 10:40:00,
2013-04-14 05:45:00,51.8,36.6,29.26,SSE,152,6.0,8.2,56,0.00,,---,0.00,VWS V14.00,2013-04-14 10:45:00,
2013-04-14 05:50:00,51.8,36.6,29.26,SSE,153,4.7,6.6,56,0.00,,---,0.00,VWS V14.00,2013-04-14 10:50:00,
2013-04-14 05:55:00,51.6,36.9,29.26,SSE,152,4.7,6.6,57,0.00,,---,0.00,VWS V14.00,2013-04-14 10:55:00,
2013-04-14 06:00:00,51.6,36.9,29.26,SSE,152,4.7,6.6,57,0.00,,---,0.00,VWS V14.00,2013-04-14 11:00:00,
2013-04-14 06:05:00,51.6,36.9,29.26,SSE,150,4.0,5.8,57,0.00,,---,0.00,VWS V14.00,2013-04-14 11:05:00,
2013-04-14 06:10:00,51.6,36.9,29.26,SSE,150,4.0,5.8,57,0.00,,---,0.00,VWS V14.00,2013-04-14 11:10:00,
2013-04-14 06:15:00,51.6,36.9,29.26,SSE,149,4.0,6.6,57,0.00,,---,0.00,VWS V14.00,2013-04-14 11:15:00,
2013-04-14 06:20:00,51.6,36.9,29.26,SSE,147,5.4,7.4,57,0.00,,---,0.00,VWS V14.00,2013-04-14 11:20:00,
2013-04-14 06:25:00,51.6,36.9,29.26,SSE,149,7.4,9.9,57,0.00,,---,0.00,VWS V14.00,2013-04-14 11:25:00,
2013-04-14 06:30:00,51.6,37.3,29.26,SSE,153,5.4,7.4,58,0.00,,---,0.00,VWS V14.00,2013-04-14 11:30:00,
2013-04-14 06:35:00,51.8,37.1,29.29,SSE,164,6.0,8.2,57,0.00,,---,0.00,VWS V14.00,2013-04-14 11:35:00,
2013-04-14 06:40:00,51.6,37.8,29.29,SE,146,7.4,11.5,59,0.00,,---,0.00,VWS V14.00,2013-04-14 11:40:00,
2013-04-14 06:45:00,51.8,37.5,29.29,SE,130,6.0,8.2,58,0.00,,---,0.00,VWS V14.00,2013-04-14 11:45:00,
2013-04-14 06:50:00,51.8,37.9,29.29,SE,144,6.0,8.2,59,0.00,,---,0.00,VWS V14.00,2013-04-14 11:50:00,
2013-04-14 06:55:00,51.6,38.2,29.29,SE,141,5.4,8.2,60,0.00,,---,0.00,VWS V14.00,2013-04-14 11:55:00,
2013-04-14 07:00:00,51.6,38.2,29.29,SSE,147,5.4,7.4,60,0.00,,---,0.00,VWS V14.00,2013-04-14 12:00:00,
2013-04-14 07:05:00,51.8,38.8,29.29,SE,140,6.0,8.2,61,0.00,,---,0.00,VWS V14.00,2013-04-14 12:05:00,
2013-04-14 07:10:00,51.8,38.8,29.29,SSE,150,7.4,9.9,61,0.00,,---,0.00,VWS V14.00,2013-04-14 12:10:00,
2013-04-14 07:15:00,52.0,39.0,29.29,SSE,163,6.0,8.2,61,0.00,,---,0.00,VWS V14.00,2013-04-14 12:15:00,
2013-04-14 07:20:00,52.2,39.1,29.29,SE,145,5.4,7.4,61,0.00,,---,0.00,VWS V14.00,2013-04-14 12:20:00,
2013-04-14 07:25:00,52.2,39.1,29.29,SSE,155,8.7,11.5,61,0.00,,---,0.00,VWS V14.00,2013-04-14 12:25:00,
2013-04-14 07:30:00,52.5,39.9,29.29,SE,143,6.0,9.9,62,0.00,,---,0.00,VWS V14.00,2013-04-14 12:30:00,
2013-04-14 07:35:00,52.7,40.1,29.26,SE,146,8.1,11.5,62,0.00,,---,0.00,VWS V14.00,2013-04-14 12:35:00,
2013-04-14 07:40:00,53.1,40.4,29.26,SE,138,8.1,10.7,62,0.00,,---,0.00,VWS V14.00,2013-04-14 12:40:00,
2013-04-14 07:45:00,53.2,40.2,29.26,SE,136,8.7,11.5,61,0.00,,---,0.00,VWS V14.00,2013-04-14 12:45:00,
2013-04-14 07:50:00,53.4,40.3,29.26,SSE,155,6.0,8.2,61,0.00,,---,0.00,VWS V14.00,2013-04-14 12:50:00,
2013-04-14 07:55:00,54.1,41.0,29.26,SE,144,7.4,9.9,61,0.00,,---,0.00,VWS V14.00,2013-04-14 12:55:00,
2013-04-14 08:00:00,54.1,41.0,29.26,SSE,157,7.4,9.9,61,0.00,,---,0.00,VWS V14.00,2013-04-14 13:00:00,
2013-04-14 08:05:00,54.9,41.2,29.26,SSE,149,7.4,10.7,60,0.00,,---,0.00,VWS V14.00,2013-04-14 13:05:00,
2013-04-14 08:10:00,55.2,41.2,29.26,SSE,149,6.0,11.5,59,0.00,,---,0.00,VWS V14.00,2013-04-14 13:10:00,
2013-04-14 08:15:00,55.6,41.0,29.26,SSE,164,4.0,5.8,58,0.00,,---,0.00,VWS V14.00,2013-04-14 13:15:00,
2013-04-14 08:20:00,56.1,41.1,29.26,South,172,9.4,12.3,57,0.00,,---,0.00,VWS V14.00,2013-04-14 13:20:00,
2013-04-14 08:25:00,56.3,41.3,29.26,SSE,160,8.7,11.5,57,0.00,,---,0.00,VWS V14.00,2013-04-14 13:25:00,
2013-04-14 08:30:00,56.3,41.3,29.26,SE,140,9.4,12.3,57,0.00,,---,0.00,VWS V14.00,2013-04-14 13:30:00,
2013-04-14 08:35:00,57.4,41.4,29.26,SE,130,11.4,14.7,55,0.00,,---,0.00,VWS V14.00,2013-04-14 13:35:00,
2013-04-14 08:40:00,57.7,41.7,29.26,SE,142,10.1,13.1,55,0.00,,---,0.00,VWS V14.00,2013-04-14 13:40:00,
2013-04-14 08:45:00,58.1,41.6,29.26,SE,137,6.7,15.5,54,0.00,,---,0.00,VWS V14.00,2013-04-14 13:45:00,
2013-04-14 08:50:00,58.8,42.2,29.26,SE,129,6.0,8.2,54,0.00,,---,0.00,VWS V14.00,2013-04-14 13:50:00,
2013-04-14 08:55:00,59.5,42.4,29.26,SSE,147,8.1,10.7,53,0.00,,---,0.00,VWS V14.00,2013-04-14 13:55:00,
2013-04-14 09:00:00,60.1,41.9,29.26,SE,140,9.4,12.3,51,0.00,,---,0.00,VWS V14.00,2013-04-14 14:00:00,
2013-04-14 09:05:00,60.4,42.2,29.26,South,172,6.0,8.2,51,0.00,,---,0.00,VWS V14.00,2013-04-14 14:05:00,
2013-04-14 09:10:00,61.2,42.4,29.26,South,175,5.4,8.2,50,0.00,,---,0.00,VWS V14.00,2013-04-14 14:10:00,
2013-04-14 09:15:00,61.7,42.4,29.26,South,171,8.1,10.7,49,0.00,,---,0.00,VWS V14.00,2013-04-14 14:15:00,
2013-04-14 09:20:00,62.2,42.3,29.26,South,182,8.1,10.7,48,0.00,,---,0.00,VWS V14.00,2013-04-14 14:20:00,
2013-04-14 09:25:00,62.8,42.3,29.26,South,179,7.4,9.9,47,0.00,,---,0.00,VWS V14.00,2013-04-14 14:25:00,
2013-04-14 09:30:00,63.0,42.4,29.26,South,175,8.1,12.3,47,0.00,,---,0.00,VWS V14.00,2013-04-14 14:30:00,
2013-04-14 09:35:00,63.5,42.4,29.26,South,177,8.7,11.5,46,0.00,,---,0.00,VWS V14.00,2013-04-14 14:35:00,
2013-04-14 09:40:00,64.2,43.0,29.26,SSE,154,8.1,10.7,46,0.00,,---,0.00,VWS V14.00,2013-04-14 14:40:00,
2013-04-14 09:45:00,64.8,43.0,29.26,SSW,196,6.0,8.2,45,0.00,,---,0.00,VWS V14.00,2013-04-14 14:45:00,
2013-04-14 09:50:00,64.8,43.0,29.23,South,183,8.7,11.5,45,0.00,,---,0.00,VWS V14.00,2013-04-14 14:50:00,
2013-04-14 09:55:00,65.5,41.8,29.23,South,183,8.7,11.5,42,0.00,,---,0.00,VWS V14.00,2013-04-14 14:55:00,
2013-04-14 10:00:00,65.8,41.5,29.23,South,169,9.4,12.3,41,0.00,,---,0.00,VWS V14.00,2013-04-14 15:00:00,
2013-04-14 10:05:00,66.0,40.4,29.23,South,178,8.7,15.9,39,0.00,,---,0.00,VWS V14.00,2013-04-14 15:05:00,
2013-04-14 10:10:00,66.4,40.0,29.23,SSE,165,9.4,21.5,38,0.00,,---,0.00,VWS V14.00,2013-04-14 15:10:00,
2013-04-14 10:15:00,66.7,41.0,29.23,South,179,9.4,15.5,39,0.00,,---,0.00,VWS V14.00,2013-04-14 15:15:00,
2013-04-14 10:20:00,67.3,40.8,29.23,SSE,152,8.7,11.5,38,0.00,,---,0.00,VWS V14.00,2013-04-14 15:20:00,
2013-04-14 10:26:00,67.3,40.8,29.23,SSE,162,15.8,19.9,38,0.00,,---,0.00,VWS V14.00,2013-04-14 15:26:00,
2013-04-14 10:30:00,67.6,40.5,29.23,SE,142,9.4,19.1,37,0.00,,---,0.00,VWS V14.00,2013-04-14 15:30:00,
2013-04-14 10:35:00,68.0,40.8,29.23,South,169,12.1,15.5,37,0.00,,---,0.00,VWS V14.00,2013-04-14 15:35:00,
2013-04-14 10:40:00,68.4,41.1,29.23,SSE,159,12.1,15.5,37,0.00,,---,0.00,VWS V14.00,2013-04-14 15:40:00,
2013-04-14 10:45:00,68.5,41.3,29.23,South,186,9.4,12.3,37,0.00,,---,0.00,VWS V14.00,2013-04-14 15:45:00,
2013-04-14 10:51:00,68.9,40.9,29.23,SSE,166,15.1,19.1,36,0.00,,---,0.00,VWS V14.00,2013-04-14 15:51:00,
2013-04-14 10:55:00,69.3,41.2,29.23,SSE,151,15.8,19.9,36,0.00,,---,0.00,VWS V14.00,2013-04-14 15:55:00,
2013-04-14 11:00:00,69.4,42.1,29.23,SSE,163,8.1,10.7,37,0.00,,---,0.00,VWS V14.00,2013-04-14 16:00:00,
2013-04-14 11:05:00,70.0,41.8,29.23,South,176,16.4,20.7,36,0.00,,---,0.00,VWS V14.00,2013-04-14 16:05:00,
2013-04-14 11:10:00,70.3,42.2,29.23,SSE,156,8.7,15.5,36,0.00,,---,0.00,VWS V14.00,2013-04-14 16:10:00,
2013-04-14 11:16:00,70.5,42.3,29.23,South,182,11.4,14.7,36,0.00,,---,0.00,VWS V14.00,2013-04-14 16:16:00,
2013-04-14 11:21:00,70.5,41.6,29.23,SSE,162,18.5,23.1,35,0.00,,---,0.00,VWS V14.00,2013-04-14 16:21:00,
2013-04-14 11:26:00,70.7,42.5,29.23,South,182,9.4,12.3,36,0.00,,---,0.00,VWS V14.00,2013-04-14 16:26:00,
2013-04-14 11:31:00,70.7,41.7,29.23,SSE,160,13.1,23.1,35,0.00,,---,0.00,VWS V14.00,2013-04-14 16:31:00,
2013-04-14 11:36:00,70.7,41.7,29.23,SSE,156,13.1,16.7,35,0.00,,---,0.00,VWS V14.00,2013-04-14 16:36:00,
2013-04-14 11:41:00,70.9,42.6,29.23,South,189,8.1,15.5,36,0.00,,---,0.00,VWS V14.00,2013-04-14 16:41:00,
2013-04-14 11:46:00,70.9,41.9,29.23,SSE,160,16.4,20.7,35,0.00,,---,0.00,VWS V14.00,2013-04-14 16:46:00,
2013-04-14 11:51:00,70.9,41.9,29.23,South,180,13.1,16.7,35,0.00,,---,0.00,VWS V14.00,2013-04-14 16:51:00,
2013-04-14 11:56:00,71.2,42.9,29.23,ENE,71,11.4,14.7,36,0.00,,---,0.00,VWS V14.00,2013-04-14 16:56:00,
2013-04-14 12:01:00,71.4,43.1,29.23,South,169,9.4,15.5,36,0.00,,---,0.00,VWS V14.00,2013-04-14 17:01:00,
2013-04-14 12:06:00,71.4,42.4,29.21,SSW,205,9.4,12.3,35,0.00,,---,0.00,VWS V14.00,2013-04-14 17:06:00,
2013-04-14 12:11:00,71.6,42.5,29.21,South,186,11.4,16.7,35,0.00,,---,0.00,VWS V14.00,2013-04-14 17:11:00,
2013-04-14 12:16:00,72.0,43.6,29.21,South,179,12.4,15.9,36,0.00,,---,0.00,VWS V14.00,2013-04-14 17:16:00,
2013-04-14 12:21:00,72.0,43.6,29.21,SSE,164,9.4,12.3,36,0.00,,---,0.00,VWS V14.00,2013-04-14 17:21:00,
2013-04-14 12:26:00,72.0,43.6,29.21,South,189,9.4,12.3,36,0.00,,---,0.00,VWS V14.00,2013-04-14 17:26:00,
2013-04-14 12:31:00,72.1,43.7,29.21,South,185,7.4,9.9,36,0.00,,---,0.00,VWS V14.00,2013-04-14 17:31:00,
2013-04-14 12:36:00,72.3,43.9,29.21,South,185,5.4,7.4,36,0.00,,---,0.00,VWS V14.00,2013-04-14 17:36:00,
2013-04-14 12:40:00,72.3,43.9,29.21,South,179,7.4,10.7,36,0.00,,---,0.00,VWS V14.00,2013-04-14 17:40:00,
2013-04-14 12:45:00,72.7,44.2,29.21,SSW,198,4.7,6.6,36,0.00,,---,0.00,VWS V14.00,2013-04-14 17:45:00,
2013-04-14 12:50:00,72.7,44.2,29.21,SSW,195,8.1,10.7,36,0.00,,---,0.00,VWS V14.00,2013-04-14 17:50:00,
2013-04-14 12:55:00,73.2,44.0,29.21,SSE,159,9.4,12.3,35,0.00,,---,0.00,VWS V14.00,2013-04-14 17:55:00,
2013-04-14 13:00:00,73.4,44.1,29.21,South,178,8.7,19.1,35,0.00,,---,0.00,VWS V14.00,2013-04-14 18:00:00,
2013-04-14 13:05:00,73.6,45.0,29.21,SE,145,8.1,10.7,36,0.00,,---,0.00,VWS V14.00,2013-04-14 18:05:00,
2013-04-14 13:10:00,73.9,44.6,29.21,SSE,162,19.1,24.0,35,0.00,,---,0.00,VWS V14.00,2013-04-14 18:10:00,
2013-04-14 13:15:00,73.9,44.6,29.21,SSE,157,9.4,12.3,35,0.00,,---,0.00,VWS V14.00,2013-04-14 18:15:00,
2013-04-14 13:21:00,74.3,44.9,29.21,SSE,160,11.4,14.7,35,0.00,,---,0.00,VWS V14.00,2013-04-14 18:21:00,
2013-04-14 13:25:00,73.8,43.7,29.21,South,169,8.7,17.5,34,0.00,,---,0.00,VWS V14.00,2013-04-14 18:25:00,
2013-04-14 13:30:00,73.2,44.0,29.21,SSE,160,9.4,15.5,35,0.00,,---,0.00,VWS V14.00,2013-04-14 18:30:00,
2013-04-14 13:35:00,73.0,43.8,29.21,South,171,8.1,21.5,35,0.00,,---,0.00,VWS V14.00,2013-04-14 18:35:00,
2013-04-14 13:41:00,73.0,43.8,29.21,South,175,8.1,16.7,35,0.00,,---,0.00,VWS V14.00,2013-04-14 18:41:00,
2013-04-14 13:46:00,72.7,43.5,29.21,SSW,207,8.7,15.5,35,0.00,,---,0.00,VWS V14.00,2013-04-14 18:46:00,
2013-04-14 13:50:00,72.3,43.2,29.21,South,181,8.1,10.7,35,0.00,,---,0.00,VWS V14.00,2013-04-14 18:50:00,
2013-04-14 13:56:00,72.1,43.7,29.21,South,188,5.4,10.7,36,0.00,,---,0.00,VWS V14.00,2013-04-14 18:56:00,
2013-04-14 14:01:00,72.1,43.7,29.21,SSE,166,8.7,13.1,36,0.00,,---,0.00,VWS V14.00,2013-04-14 19:01:00,
2013-04-14 14:06:00,72.3,43.9,29.21,SSE,156,9.4,12.3,36,0.00,,---,0.00,VWS V14.00,2013-04-14 19:06:00,
2013-04-14 14:11:00,72.3,43.9,29.21,South,176,10.7,14.7,36,0.00,,---,0.00,VWS V14.00,2013-04-14 19:11:00,
2013-04-14 14:16:00,72.5,44.1,29.21,South,190,12.1,15.5,36,0.00,,---,0.00,VWS V14.00,2013-04-14 19:16:00,
2013-04-14 14:21:00,72.7,44.9,29.21,SSW,196,12.4,15.9,37,0.00,,---,0.00,VWS V14.00,2013-04-14 19:21:00,
2013-04-14 14:26:00,73.0,45.2,29.21,SW,218,6.0,8.2,37,0.00,,---,0.00,VWS V14.00,2013-04-14 19:26:00,
2013-04-14 14:31:00,73.4,45.6,29.21,South,186,7.4,9.9,37,0.00,,---,0.00,VWS V14.00,2013-04-14 19:31:00,
2013-04-14 14:36:00,73.9,46.0,29.18,SSW,211,8.1,10.7,37,0.00,,---,0.00,VWS V14.00,2013-04-14 19:36:00,
2013-04-14 14:41:00,74.1,44.8,29.18,South,179,8.7,11.5,35,0.00,,---,0.00,VWS V14.00,2013-04-14 19:41:00,
2013-04-14 14:46:00,73.9,44.6,29.18,South,186,18.5,23.1,35,0.00,,---,0.00,VWS V14.00,2013-04-14 19:46:00,
2013-04-14 14:51:00,73.9,43.8,29.18,SE,143,8.1,10.7,34,0.00,,---,0.00,VWS V14.00,2013-04-14 19:51:00,
2013-04-14 14:56:00,73.9,44.6,29.18,South,174,19.1,24.0,35,0.00,,---,0.00,VWS V14.00,2013-04-14 19:56:00,
2013-04-14 15:01:00,74.1,44.8,29.18,South,170,12.1,15.5,35,0.00,,---,0.00,VWS V14.00,2013-04-14 20:01:00,
2013-04-14 15:06:00,74.3,44.9,29.18,South,174,9.4,12.3,35,0.00,,---,0.00,VWS V14.00,2013-04-14 20:06:00,
2013-04-14 15:11:00,73.9,44.6,29.18,SSE,159,19.8,24.8,35,0.00,,---,0.00,VWS V14.00,2013-04-14 20:11:00,
2013-04-14 15:16:00,73.9,44.6,29.18,SSE,151,15.8,19.9,35,0.00,,---,0.00,VWS V14.00,2013-04-14 20:16:00,
2013-04-14 15:21:00,74.1,45.5,29.18,South,181,4.7,11.5,36,0.00,,---,0.00,VWS V14.00,2013-04-14 20:21:00,
2013-04-14 15:27:00,74.1,45.5,29.18,South,176,17.8,22.3,36,0.00,,---,0.00,VWS V14.00,2013-04-14 20:27:00,
2013-04-14 15:32:00,73.8,45.2,29.18,South,185,12.4,15.9,36,0.00,,---,0.00,VWS V14.00,2013-04-14 20:32:00,
2013-04-14 15:37:00,73.8,45.2,29.18,South,170,8.1,10.7,36,0.00,,---,0.00,VWS V14.00,2013-04-14 20:37:00,
2013-04-14 15:42:00,74.1,46.2,29.18,SSE,156,6.0,12.3,37,0.00,,---,0.00,VWS V14.00,2013-04-14 20:42:00,
2013-04-14 15:47:00,74.1,46.9,29.18,SSW,194,8.7,11.5,38,0.00,,---,0.00,VWS V14.00,2013-04-14 20:47:00,
2013-04-14 15:52:00,74.3,46.4,29.18,South,187,9.4,12.3,37,0.00,,---,0.00,VWS V14.00,2013-04-14 20:52:00,
2013-04-14 15:57:00,73.6,45.0,29.18,South,187,9.4,12.3,36,0.00,,---,0.00,VWS V14.00,2013-04-14 20:57:00,
2013-04-14 16:02:00,73.4,44.8,29.18,South,170,13.8,17.5,36,0.00,,---,0.00,VWS V14.00,2013-04-14 21:02:00,
2013-04-14 16:07:00,73.2,45.4,29.18,SSE,160,13.1,23.1,37,0.00,,---,0.00,VWS V14.00,2013-04-14 21:07:00,
2013-04-14 16:12:00,73.2,44.7,29.18,SSW,195,13.1,16.7,36,0.00,,---,0.00,VWS V14.00,2013-04-14 21:12:00,
2013-04-14 16:17:00,73.4,44.8,29.15,South,177,12.4,16.7,36,0.00,,---,0.00,VWS V14.00,2013-04-14 21:17:00,
2013-04-14 16:22:00,73.0,45.2,29.15,South,186,6.7,15.9,37,0.00,,---,0.00,VWS V14.00,2013-04-14 21:22:00,
2013-04-14 16:27:00,71.8,43.4,29.15,SSE,168,15.8,19.9,36,0.00,,---,0.00,VWS V14.00,2013-04-14 21:27:00,
2013-04-14 16:32:00,71.8,43.4,29.15,South,184,16.4,20.7,36,0.00,,---,0.00,VWS V14.00,2013-04-14 21:32:00,
2013-04-14 16:37:00,72.1,43.0,29.15,South,181,18.5,23.1,35,0.00,,---,0.00,VWS V14.00,2013-04-14 21:37:00,
2013-04-14 16:42:00,72.5,43.3,29.15,South,173,27.5,34.0,35,0.00,,---,0.00,VWS V14.00,2013-04-14 21:42:00,
2013-04-14 16:47:00,72.5,43.3,29.15,SSE,158,13.1,20.7,35,0.00,,---,0.00,VWS V14.00,2013-04-14 21:47:00,
2013-04-14 16:52:00,72.3,43.9,29.15,SSE,156,15.1,19.1,36,0.00,,---,0.00,VWS V14.00,2013-04-14 21:52:00,
2013-04-14 16:57:00,72.0,43.6,29.15,SSW,197,23.2,28.8,36,0.00,,---,0.00,VWS V14.00,2013-04-14 21:57:00,
2013-04-14 17:02:00,71.8,43.4,29.15,SSE,166,21.8,27.2,36,0.00,,---,0.00,VWS V14.00,2013-04-14 22:02:00,
2013-04-14 17:07:00,71.8,43.4,29.18,SSE,162,17.8,22.3,36,0.00,,---,0.00,VWS V14.00,2013-04-14 22:07:00,
2013-04-14 17:12:00,71.4,43.1,29.18,South,176,20.5,25.6,36,0.00,,---,0.00,VWS V14.00,2013-04-14 22:12:00,
2013-04-14 17:17:00,71.2,43.7,29.18,South,184,17.8,22.3,37,0.00,,---,0.00,VWS V14.00,2013-04-14 22:17:00,
2013-04-14 17:22:00,71.2,43.7,29.18,South,174,18.5,23.1,37,0.00,,---,0.00,VWS V14.00,2013-04-14 22:22:00,
2013-04-14 17:27:00,71.4,43.8,29.18,SSE,159,21.1,26.4,37,0.00,,---,0.00,VWS V14.00,2013-04-14 22:27:00,
2013-04-14 17:32:00,71.1,43.5,29.18,South,176,18.5,28.0,37,0.00,,---,0.00,VWS V14.00,2013-04-14 22:32:00,
2013-04-14 17:37:00,70.3,42.9,29.18,SSE,156,21.8,27.2,37,0.00,,---,0.00,VWS V14.00,2013-04-14 22:37:00,
2013-04-14 17:42:00,70.3,43.5,29.18,South,175,13.1,23.1,38,0.00,,---,0.00,VWS V14.00,2013-04-14 22:42:00,
2013-04-14 17:47:00,70.2,42.7,29.18,South,174,14.4,18.3,37,0.00,,---,0.00,VWS V14.00,2013-04-14 22:47:00,
2013-04-14 17:52:00,70.0,43.2,29.18,SSE,149,13.1,16.7,38,0.00,,---,0.00,VWS V14.00,2013-04-14 22:52:00,
2013-04-14 17:57:00,69.8,43.1,29.18,South,169,8.7,11.5,38,0.00,,---,0.00,VWS V14.00,2013-04-14 22:57:00,
2013-04-14 18:02:00,69.8,43.8,29.18,South,178,10.7,13.9,39,0.00,,---,0.00,VWS V14.00,2013-04-14 23:02:00,
2013-04-14 18:07:00,69.6,43.6,29.18,South,178,10.7,13.9,39,0.00,,---,0.00,VWS V14.00,2013-04-14 23:07:00,
2013-04-14 18:12:00,69.3,43.3,29.18,SE,146,13.1,16.7,39,0.00,,---,0.00,VWS V14.00,2013-04-14 23:12:00,
2013-04-14 18:17:00,68.9,43.6,29.18,SE,135,17.8,22.3,40,0.00,,---,0.00,VWS V14.00,2013-04-14 23:17:00,
2013-04-14 18:22:00,68.7,42.8,29.18,South,178,16.4,20.7,39,0.00,,---,0.00,VWS V14.00,2013-04-14 23:22:00,
2013-04-14 18:27:00,68.7,42.8,29.18,SSE,162,16.4,20.7,39,0.00,,---,0.00,VWS V14.00,2013-04-14 23:27:00,
2013-04-14 18:32:00,68.4,42.5,29.18,SSE,154,16.4,20.7,39,0.00,,---,0.00,VWS V14.00,2013-04-14 23:32:00,
2013-04-14 18:37:00,67.6,42.5,29.18,South,174,18.5,23.1,40,0.00,,---,0.00,VWS V14.00,2013-04-14 23:37:00,
2013-04-14 18:42:00,67.3,42.8,29.18,South,169,12.4,19.9,41,0.00,,---,0.00,VWS V14.00,2013-04-14 23:42:00,
2013-04-14 18:47:00,66.9,43.1,29.18,South,170,25.5,31.6,42,0.00,,---,0.00,VWS V14.00,2013-04-14 23:47:00,
2013-04-14 18:52:00,66.6,42.8,29.15,SSE,160,24.5,30.4,42,0.00,,---,0.00,VWS V14.00,2013-04-14 23:52:00,
2013-04-14 18:58:00,66.4,43.2,29.15,SSE,160,24.5,30.4,43,0.00,,---,0.00,VWS V14.00,2013-04-14 23:58:00,
2013-04-14 19:03:00,66.2,43.1,29.15,South,173,12.1,15.5,43,0.00,,---,0.00,VWS V14.00,2013-04-15 00:03:00,
2013-04-14 19:08:00,65.8,43.9,29.15,SE,145,19.8,24.8,45,0.00,,---,0.00,VWS V14.00,2013-04-15 00:08:00,
2013-04-14 19:19:00,65.1,43.8,29.18,SSE,152,9.4,12.3,46,0.00,,---,0.00,VWS V14.00,2013-04-15 00:19:00,
2013-04-14 19:47:00,64.0,44.0,29.15,SSE,154,15.1,19.1,48,0.00,,---,0.00,VWS V14.00,2013-04-15 00:47:00,
2013-04-14 19:52:00,63.9,43.8,29.18,SSE,159,8.7,15.9,48,0.00,,---,0.00,VWS V14.00,2013-04-15 00:52:00,
2013-04-14 19:57:00,63.7,44.2,29.18,SE,139,15.1,20.7,49,0.00,,---,0.00,VWS V14.00,2013-04-15 00:57:00,
2013-04-14 20:02:00,63.5,44.0,29.18,SSE,164,9.4,12.3,49,0.00,,---,0.00,VWS V14.00,2013-04-15 01:02:00,
2013-04-14 20:07:00,63.5,44.0,29.18,SSE,164,9.4,12.3,49,0.00,,---,0.00,VWS V14.00,2013-04-15 01:07:00,
2013-04-14 20:12:00,63.3,43.8,29.18,SSE,151,12.1,15.5,49,0.00,,---,0.00,VWS V14.00,2013-04-15 01:12:00,
2013-04-14 20:17:00,63.1,44.2,29.18,SSE,159,9.4,12.3,50,0.00,,---,0.00,VWS V14.00,2013-04-15 01:17:00,
2013-04-14 20:22:00,63.0,44.0,29.18,SE,144,17.1,21.5,50,0.00,,---,0.00,VWS V14.00,2013-04-15 01:22:00,
2013-04-14 20:27:00,63.0,44.0,29.18,SSE,155,9.4,12.3,50,0.00,,---,0.00,VWS V14.00,2013-04-15 01:27:00,
2013-04-14 20:32:00,62.6,44.2,29.18,SSE,155,12.4,15.9,51,0.00,,---,0.00,VWS V14.00,2013-04-15 01:32:00,
2013-04-14 20:37:00,62.4,44.6,29.18,SSE,149,13.8,17.5,52,0.00,,---,0.00,VWS V14.00,2013-04-15 01:37:00,
2013-04-14 20:42:00,62.4,44.6,29.18,SSE,152,13.1,16.7,52,0.00,,---,0.00,VWS V14.00,2013-04-15 01:42:00,
2013-04-14 20:47:00,62.2,44.4,29.18,SSE,167,12.1,15.5,52,0.00,,---,0.00,VWS V14.00,2013-04-15 01:47:00,
2013-04-14 20:52:00,61.9,44.6,29.18,SE,143,8.7,11.5,53,0.00,,---,0.00,VWS V14.00,2013-04-15 01:52:00,
2013-04-14 20:57:00,61.9,44.6,29.18,SE,143,8.7,11.5,53,0.00,,---,0.00,VWS V14.00,2013-04-15 01:57:00,
2013-04-14 21:02:00,61.9,44.6,29.21,SE,125,8.7,11.5,53,0.00,,---,0.00,VWS V14.00,2013-04-15 02:02:00,
2013-04-14 21:07:00,61.7,44.9,29.21,SSE,158,11.4,14.7,54,0.00,,---,0.00,VWS V14.00,2013-04-15 02:07:00,
2013-04-14 21:12:00,61.5,44.7,29.21,SE,145,8.7,14.7,54,0.00,,---,0.00,VWS V14.00,2013-04-15 02:12:00,
2013-04-14 21:17:00,61.3,45.0,29.18,SE,144,9.4,12.3,55,0.00,,---,0.00,VWS V14.00,2013-04-15 02:17:00,
2013-04-14 21:22:00,61.2,45.8,29.18,SE,133,8.7,11.5,57,0.00,,---,0.00,VWS V14.00,2013-04-15 02:22:00,
2013-04-14 21:27:00,61.2,45.4,29.18,SSE,159,11.4,14.7,56,0.00,,---,0.00,VWS V14.00,2013-04-15 02:27:00,
2013-04-14 21:32:00,61.2,45.4,29.18,SSE,149,13.1,16.7,56,0.00,,---,0.00,VWS V14.00,2013-04-15 02:32:00,
2013-04-14 21:37:00,61.2,45.4,29.21,SSE,154,9.4,12.3,56,0.00,,---,0.00,VWS V14.00,2013-04-15 02:37:00,
2013-04-14 21:42:00,61.2,45.4,29.21,SSE,158,8.1,15.5,56,0.00,,---,0.00,VWS V14.00,2013-04-15 02:42:00,
2013-04-14 21:47:00,61.2,45.8,29.21,SE,133,7.4,9.9,57,0.00,,---,0.00,VWS V14.00,2013-04-15 02:47:00,
2013-04-14 21:52:00,61.0,46.1,29.21,SSE,156,9.4,12.3,58,0.00,,---,0.00,VWS V14.00,2013-04-15 02:52:00,
2013-04-14 21:57:00,61.2,45.8,29.21,SSE,156,6.0,8.2,57,0.00,,---,0.00,VWS V14.00,2013-04-15 02:57:00,
2013-04-14 22:02:00,61.2,45.8,29.21,SSE,163,9.4,12.3,57,0.00,,---,0.00,VWS V14.00,2013-04-15 03:02:00,
2013-04-14 22:07:00,61.2,45.8,29.21,SSE,163,8.1,10.7,57,0.00,,---,0.00,VWS V14.00,2013-04-15 03:07:00,
2013-04-14 22:12:00,61.0,46.1,29.21,SSE,156,8.7,15.9,58,0.00,,---,0.00,VWS V14.00,2013-04-15 03:12:00,
2013-04-14 22:17:00,61.0,46.1,29.21,SE,145,8.7,11.5,58,0.00,,---,0.00,VWS V14.00,2013-04-15 03:17:00,
2013-04-14 22:22:00,60.8,46.0,29.21,SE,145,8.7,11.5,58,0.00,,---,0.00,VWS V14.00,2013-04-15 03:22:00,
2013-04-14 22:27:00,60.6,46.2,29.21,SSE,159,10.1,13.1,59,0.00,,---,0.00,VWS V14.00,2013-04-15 03:27:00,
2013-04-14 22:32:00,60.6,46.2,29.21,SE,138,8.7,11.5,59,0.00,,---,0.00,VWS V14.00,2013-04-15 03:32:00,
2013-04-14 22:37:00,60.6,46.7,29.21,South,173,11.4,14.7,60,0.00,,---,0.00,VWS V14.00,2013-04-15 03:37:00,
2013-04-14 22:42:00,60.4,46.5,29.21,South,176,12.1,15.9,60,0.00,,---,0.00,VWS V14.00,2013-04-15 03:42:00,
2013-04-14 22:47:00,60.6,46.7,29.21,SSE,153,12.1,15.5,60,0.00,,---,0.00,VWS V14.00,2013-04-15 03:47:00,
2013-04-14 22:52:00,60.4,46.5,29.21,SSE,166,12.4,15.9,60,0.00,,---,0.00,VWS V14.00,2013-04-15 03:52:00,
2013-04-14 22:57:00,60.6,46.7,29.21,ESE,103,8.7,11.5,60,0.00,,---,0.00,VWS V14.00,2013-04-15 03:57:00,
2013-04-14 23:00:00,60.6,46.7,29.21,SSE,157,12.1,15.5,60,0.00,,---,0.00,VWS V14.00,2013-04-15 04:00:00,
2013-04-14 23:05:00,60.6,46.7,29.21,SE,143,9.4,12.3,60,0.00,,---,0.00,VWS V14.00,2013-04-15 04:05:00,
2013-04-14 23:10:00,60.6,46.7,29.21,SSE,155,8.7,16.7,60,0.00,,---,0.00,VWS V14.00,2013-04-15 04:10:00,
2013-04-14 23:15:00,60.6,46.7,29.21,SSE,160,8.7,11.5,60,0.00,,---,0.00,VWS V14.00,2013-04-15 04:15:00,
2013-04-14 23:20:00,60.6,47.1,29.18,SSE,155,9.4,12.3,61,0.00,,---,0.00,VWS V14.00,2013-04-15 04:20:00,
2013-04-14 23:25:00,60.4,46.9,29.18,SSE,160,15.8,19.9,61,0.00,,---,0.00,VWS V14.00,2013-04-15 04:25:00,
2013-04-14 23:30:00,60.4,46.5,29.18,SSE,156,8.7,11.5,60,0.00,,---,0.00,VWS V14.00,2013-04-15 04:30:00,
2013-04-14 23:35:00,60.4,46.9,29.21,South,181,8.1,10.7,61,0.00,,---,0.00,VWS V14.00,2013-04-15 04:35:00,
2013-04-14 23:40:00,60.4,46.9,29.21,SSE,159,9.4,12.3,61,0.00,,---,0.00,VWS V14.00,2013-04-15 04:40:00,
2013-04-14 23:45:00,60.4,46.9,29.21,South,172,9.4,12.3,61,0.00,,---,0.00,VWS V14.00,2013-04-15 04:45:00,
2013-04-14 23:50:00,60.4,46.9,29.21,SSE,168,9.4,12.3,61,0.00,,---,0.00,VWS V14.00,2013-04-15 04:50:00,
2013-04-14 23:55:00,60.3,46.8,29.21,SSW,196,4.7,6.6,61,0.00,,---,0.00,VWS V14.00,2013-04-15 04:55:00,